Theta_e
315 315 320 325 322 322 324 325 325 327 327 327 327 329 329 329 335 342 345 347 350 340 335 337 339 339 340 339 340 340 340 339 339 338 333 334 328 333 330 324 320 318 319 321 321 322 323 322 318
319 322 323 324 323 325 324 326 325 328 328 327 327 328 328 330 336 343 346 347 350 340 332 335 336 339 339 339 340 340 340 339 339 339 336 334 331 330 333 329 323 319 319 321 322 323 323 322 318
323 323 324 325 327 324 326 326 328 328 327 328 328 327 329 337 336 344 346 346 349 349 333 329 332 336 335 337 338 339 339 339 338 339 339 333 333 330 334 334 326 320 319 322 323 322 322 320 318
322 322 324 327 327 326 328 328 327 327 327 327 328 328 334 337 342 343 345 345 348 348 340 329 331 332 332 333 335 338 339 338 336 338 339 337 335 334 332 335 329 322 320 321 323 323 322 319 318
322 323 325 325 324 326 327 327 327 327 328 328 327 330 335 337 340 344 347 345 348 348 335 328 327 329 331 333 335 338 338 336 333 335 338 339 334 335 332 335 334 324 321 320 321 321 320 318 318
322 323 326 325 326 326 326 326 326 327 327 327 327 328 334 336 340 344 347 349 348 347 331 331 327 328 329 332 335 337 337 334 332 334 338 339 336 337 335 334 336 327 322 321 322 320 320 319 318
323 325 325 325 326 324 325 326 326 327 327 327 326 327 334 335 335 340 346 350 350 349 344 332 332 328 329 331 333 335 336 333 331 333 337 339 339 339 338 335 336 330 324 323 322 321 320 319 319
323 325 325 325 325 324 326 326 326 326 326 326 326 327 328 330 332 334 340 343 331 347 343 340 334 332 330 330 331 334 334 332 330 330 334 337 338 339 339 336 335 333 326 324 323 322 321 320 319
323 323 325 325 325 324 325 324 325 326 326 326 325 326 326 325 328 329 334 339 341 336 333 340 345 338 334 333 333 333 332 332 331 330 331 334 338 339 339 336 335 336 328 326 325 323 322 321 320
324 325 325 326 325 325 325 324 324 324 324 326 326 325 325 325 325 326 328 330 337 337 338 337 335 346 347 341 340 336 333 332 331 331 331 332 334 336 338 338 336 337 331 328 327 325 323 321 321
325 325 325 325 326 325 325 325 325 325 324 325 326 327 326 325 325 325 327 329 331 333 340 349 345 344 347 349 347 346 345 340 333 332 332 332 333 335 336 337 337 337 334 329 328 327 324 322 322
326 325 325 325 325 325 325 325 325 326 326 326 327 325 324 323 324 325 326 328 329 331 333 340 344 350 348 348 347 348 346 344 345 342 338 337 337 335 338 340 339 337 335 331 330 329 327 324 323
327 327 325 325 325 325 325 325 326 326 326 326 326 324 324 324 325 326 327 328 329 330 329 332 338 343 347 348 346 346 347 347 345 344 345 344 342 341 340 340 342 339 338 338 333 330 328 326 325
326 326 326 326 326 325 326 326 326 326 327 327 325 325 324 323 322 321 322 324 327 330 332 331 330 333 342 345 347 344 344 345 346 346 343 343 344 343 341 340 340 341 340 340 337 333 331 329 328
324 325 325 325 325 325 325 327 327 326 327 326 325 324 323 320 318 317 317 319 321 328 329 328 331 334 330 337 342 346 343 342 344 344 346 341 341 342 342 340 340 341 340 340 338 336 334 331 330
325 325 326 326 326 326 326 327 327 327 327 326 326 324 322 318 316 316 316 317 318 321 326 326 324 323 326 333 338 341 341 339 338 340 342 342 340 340 340 339 340 340 340 340 338 337 336 334 331
326 327 327 328 328 327 327 327 327 327 327 327 326 324 321 317 316 316 316 316 316 317 317 320 321 319 322 323 331 336 336 338 338 338 339 339 339 339 340 340 340 339 339 339 339 338 337 335 333
329 329 330 329 328 327 328 328 328 327 327 327 326 322 319 316 316 314 314 313 313 313 312 312 312 312 314 319 321 323 325 331 334 335 338 336 336 337 337 337 340 340 339 339 337 337 336 335 334
327 327 328 327 327 328 328 328 328 328 328 327 325 321 317 316 314 312 311 311 311 311 311 311 312 311 311 311 311 312 315 317 322 325 329 330 333 335 335 337 337 339 341 338 337 336 336 335 333
326 326 327 327 328 328 328 328 328 328 327 327 322 319 317 315 313 311 311 311 310 310 309 310 310 310 310 310 310 310 309 309 310 313 317 317 320 329 330 335 336 334 338 336 337 335 333 334 333
326 326 327 328 327 327 328 329 330 323 321 322 320 318 317 315 313 311 310 310 309 309 309 310 310 310 309 309 308 308 308 308 311 312 312 311 311 311 321 330 333 333 335 334 333 333 334 331 328
327 327 327 327 327 330 328 331 330 324 319 318 316 315 314 312 311 311 310 310 309 309 308 308 307 307 307 307 307 307 307 308 309 310 311 313 312 310 307 311 319 326 328 330 329 328 331 330 328
327 327 328 328 329 330 329 331 330 328 319 318 316 314 312 311 310 310 310 309 308 308 308 307 306 307 306 306 306 307 307 307 307 307 310 310 312 314 314 311 309 310 313 321 326 326 326 325 326
327 327 327 328 330 333 331 331 331 325 321 318 315 313 311 310 310 310 309 309 308 307 306 305 305 305 305 305 305 306 306 306 306 307 307 308 310 312 314 314 313 312 310 310 313 316 322 324 323
327 328 332 331 333 333 329 329 328 322 321 317 314 312 311 310 310 310 309 307 306 305 304 304 304 304 304 304 304 303 304 305 305 304 306 308 309 312 313 313 314 315 314 312 309 309 312 317 320
325 326 330 333 333 331 328 328 320 315 314 314 312 311 310 311 309 309 307 305 304 304 303 303 303 303 303 303 303 303 302 303 303 303 304 305 308 309 310 312 312 312 313 314 313 313 310 311 314
326 327 326 329 329 330 327 323 315 314 313 312 311 311 311 310 308 307 305 305 304 303 302 302 302 302 303 302 302 300 301 302 302 301 302 304 306 308 308 309 309 309 311 312 313 312 314 311 311
325 325 327 330 332 330 328 326 322 315 314 312 311 311 310 308 307 305 304 303 302 302 301 302 302 302 302 301 301 300 300 301 301 301 303 306 307 307 307 303 307 309 308 308 311 312 310 313 314
326 326 326 326 327 331 330 326 319 317 315 314 312 312 308 306 304 303 303 301 301 301 301 301 301 301 300 299 299 300 300 299 299 302 306 306 305 303 302 303 302 304 304 302 303 305 308 310 311
324 325 325 329 329 329 329 329 320 317 314 313 312 310 306 305 304 302 301 300 300 300 300 301 300 299 297 299 300 302 302 302 303 303 303 302 301 300 300 301 301 302 301 301 301 301 303 307 310
Wind_Speed
7 7 6 6 6 7 15 19 5 2 5 9 8 8 10 12 15 5 8 11 12 3 9 11 12 13 14 15 16 15 13 11 11 12 13 11 9 8 7 6 5 5 6 6 7 7 6 6 6
7 0 7 9 7 12 14 6 6 9 11 6 3 3 4 12 21 17 13 13 10 4 6 6 9 11 12 13 14 13 12 11 12 13 14 13 12 10 7 5 5 5 6 7 7 7 6 5 5
7 8 13 6 12 15 7 8 13 10 4 4 4 4 3 15 15 14 8 11 8 7 5 6 6 8 10 11 12 12 12 11 12 14 16 16 15 12 10 8 7 7 8 8 9 8 6 6 5
4 8 11 9 17 20 5 10 12 1 4 3 6 4 14 12 12 9 7 10 7 7 1 5 4 7 9 11 12 12 12 12 12 14 17 18 18 16 13 10 9 9 9 10 11 9 8 8 7
9 13 12 14 17 15 6 12 6 3 3 6 4 4 19 13 9 9 6 8 6 7 2 1 1 5 8 11 13 13 13 13 13 14 18 20 20 18 16 14 13 12 12 13 13 11 10 10 9
12 16 12 14 19 8 4 8 1 4 2 1 4 8 15 11 11 7 5 3 6 6 4 2 3 5 8 10 12 14 14 13 14 15 17 20 21 20 19 18 16 15 16 15 15 12 12 12 11
15 12 16 19 11 5 4 9 6 5 6 12 5 5 14 13 9 7 3 5 7 7 9 8 6 7 10 12 14 16 16 16 15 16 18 20 21 21 22 22 20 19 19 18 17 15 15 14 13
16 11 20 18 11 7 11 8 5 4 4 5 4 3 10 11 5 4 1 3 2 7 8 10 10 10 12 15 17 19 19 19 19 19 20 22 23 24 25 25 24 22 22 21 19 17 17 16 15
14 9 13 16 11 2 8 2 10 5 7 9 5 8 9 5 4 2 5 3 7 8 9 10 10 12 12 17 19 21 22 23 23 23 24 25 26 27 28 28 28 26 25 24 23 20 20 19 18
11 12 20 9 12 6 2 2 10 13 13 14 12 13 6 2 3 5 8 10 13 10 13 12 10 12 14 13 15 19 24 26 27 28 28 28 29 30 30 31 31 30 29 28 27 24 23 21 21
17 14 19 21 6 8 14 14 14 14 13 14 7 6 4 6 5 4 8 12 13 9 6 7 12 12 14 14 13 18 19 22 31 31 31 31 31 32 32 32 34 36 34 32 32 29 28 26 25
15 20 21 18 17 9 11 17 16 16 15 13 6 4 4 5 6 7 8 10 13 9 9 5 5 12 12 13 19 18 23 20 22 24 30 31 29 32 32 32 33 33 36 37 36 35 32 30 27
16 16 16 23 12 14 16 17 17 19 16 14 2 2 3 2 6 7 10 11 8 9 11 11 6 4 4 12 15 20 21 21 19 23 23 26 29 32 32 33 34 37 36 34 38 38 36 33 30
23 21 16 19 18 18 17 19 20 22 16 6 7 4 8 9 9 8 11 12 11 12 13 12 11 14 14 9 15 18 22 19 21 23 20 25 30 31 33 35 36 39 38 36 35 38 38 35 35
18 19 17 21 23 22 24 15 17 26 13 12 14 11 8 9 9 11 12 12 13 13 12 10 9 10 9 18 16 16 21 26 26 22 25 24 32 33 34 34 36 39 41 40 35 37 37 36 35
17 15 16 20 23 21 3 14 21 12 18 11 13 16 12 11 10 11 13 12 12 11 15 15 13 12 9 5 9 10 15 18 23 29 30 28 28 31 35 38 38 39 39 43 41 42 39 38 37
15 15 18 20 9 5 10 12 5 11 11 13 17 21 17 14 10 11 11 13 12 14 11 10 12 13 13 12 7 11 14 15 18 21 25 28 31 32 34 37 42 42 40 44 44 46 47 47 43
15 10 11 11 14 8 9 11 13 19 17 14 12 17 17 13 11 9 10 9 11 11 13 14 16 16 13 10 15 12 11 14 18 21 21 27 29 30 34 36 38 43 45 50 48 50 49 51 49
13 14 14 16 14 7 11 13 16 18 20 19 19 18 17 15 10 8 8 9 11 13 14 17 17 19 21 19 17 18 20 21 17 19 25 29 31 33 33 32 37 44 47 46 49 51 48 54 52
13 15 15 15 15 15 18 21 20 21 10 8 23 20 18 14 10 7 7 8 10 13 15 16 16 17 18 21 17 18 20 20 23 24 25 25 24 26 34 34 33 38 49 48 52 50 48 51 56
12 13 14 16 17 19 20 23 22 9 11 15 19 20 17 13 10 6 5 7 9 12 14 16 18 19 18 21 22 24 27 28 21 19 26 31 30 26 25 28 34 30 39 47 59 52 60 55 54
15 14 15 18 16 16 19 16 22 10 11 12 17 17 16 13 8 5 5 7 10 12 16 18 21 22 23 26 28 30 30 30 30 32 28 27 32 32 29 27 27 25 23 38 30 42 46 57 53
17 17 16 19 19 19 23 14 18 7 17 14 14 14 12 9 6 5 6 9 11 12 14 15 18 16 20 21 24 28 32 34 36 33 33 32 26 29 31 30 29 27 26 22 25 31 32 37 46
16 16 19 20 17 15 22 17 13 10 17 16 16 13 9 6 5 5 7 10 11 14 17 18 18 20 23 24 24 24 28 32 35 37 38 36 31 29 28 26 26 29 24 25 27 20 24 35 40
11 11 7 6 8 12 12 8 5 10 11 18 15 13 8 5 4 6 9 11 14 16 19 20 21 25 24 27 29 32 29 32 36 36 34 35 33 28 24 21 20 23 22 22 25 25 28 23 26
13 12 7 8 11 16 21 9 6 15 21 20 16 10 4 2 6 8 11 13 14 17 19 21 23 23 26 27 29 34 39 36 36 35 36 37 33 34 33 27 24 21 21 21 22 26 30 32 28
7 11 14 11 13 12 11 4 7 10 10 11 10 6 3 5 8 10 12 14 16 18 21 19 24 28 25 28 32 43 40 38 42 42 36 39 35 32 30 26 24 26 25 20 20 24 29 27 25
14 13 10 1 5 7 7 13 2 11 9 8 6 4 4 7 9 11 11 16 17 20 21 22 23 21 25 33 41 47 47 41 41 45 33 27 25 18 20 28 30 26 25 26 22 19 26 29 26
12 8 11 8 5 4 6 5 4 3 11 11 6 1 4 6 9 11 14 17 18 19 20 21 22 27 35 43 47 43 39 36 34 20 19 11 18 18 20 22 22 23 26 25 24 26 23 25 27
19 17 17 4 7 7 8 11 2 7 7 6 2 5 6 10 14 12 15 16 18 21 24 18 25 30 36 41 36 30 19 13 10 13 15 14 14 15 16 19 21 24 24 23 24 24 25 26 24
Wind_Direction
179 164 136 238 247 230 257 251 80 159 150 42 15 354 330 342 48 71 119 108 135 153 142 164 169 168 166 168 173 179 185 193 199 202 201 195 189 178 165 156 160 165 170 173 174 173 172 169 168
152 285 246 263 245 251 246 147 135 55 24 13 301 264 284 70 77 103 92 103 118 45 93 157 169 175 173 176 183 190 197 207 213 213 213 209 206 203 192 184 197 198 196 198 199 199 194 193 182
187 217 253 235 228 256 326 103 67 49 70 252 169 265 51 45 58 72 78 101 110 107 37 104 173 184 189 190 195 202 208 214 221 222 221 216 214 216 216 214 224 223 219 216 217 216 213 217 199
211 219 255 260 256 240 43 68 52 12 121 200 341 108 78 56 69 67 114 113 108 113 136 83 153 193 200 199 203 210 217 221 225 226 226 222 221 223 223 227 237 238 235 229 231 229 225 226 213
261 266 250 260 252 266 87 77 15 345 48 358 306 92 92 75 87 77 114 128 138 145 241 28 160 209 215 213 211 214 218 220 225 229 228 226 225 227 228 232 239 244 244 235 233 235 236 234 225
241 233 266 252 233 218 120 99 73 253 82 152 251 356 96 94 78 67 103 139 156 183 251 251 254 236 229 228 223 222 223 224 227 230 228 228 228 231 234 235 239 244 244 240 239 237 237 239 233
258 275 274 290 313 96 183 113 216 21 343 53 3 283 120 97 83 80 91 175 169 210 205 260 253 251 233 231 229 228 226 227 228 230 230 231 232 235 238 239 241 242 242 241 241 238 239 237 233
252 280 284 280 284 269 122 131 98 259 299 357 283 324 85 97 82 91 73 300 243 218 245 245 268 249 241 237 235 231 230 230 230 231 232 232 233 236 238 239 240 242 245 244 244 239 240 237 234
267 269 266 265 235 224 99 178 219 231 252 242 247 284 358 61 53 327 245 219 271 299 280 268 265 274 245 239 238 236 235 234 234 233 232 233 236 236 235 237 239 240 244 244 245 240 239 238 232
237 260 257 18 355 347 63 209 289 278 266 238 223 222 234 24 353 293 281 263 229 259 273 280 280 269 281 266 256 245 241 240 238 236 235 234 234 237 236 238 238 238 240 242 243 240 240 238 234
235 247 281 306 354 306 305 297 277 265 262 258 328 49 54 29 7 14 346 1 1 23 23 262 280 280 265 275 262 262 262 252 243 242 242 242 239 236 239 239 238 237 237 238 238 236 234 234 234
248 255 273 287 297 272 274 282 294 295 295 295 26 28 35 47 29 24 22 15 4 333 339 78 143 262 273 246 274 267 262 260 260 261 253 246 245 241 236 237 241 242 241 237 236 235 233 234 231
259 262 269 278 263 267 268 267 271 273 273 264 208 63 149 87 73 50 26 17 6 347 312 289 277 181 194 266 261 267 279 284 275 244 257 259 252 245 240 234 234 245 244 240 237 235 233 231 229
288 284 291 279 282 263 263 264 266 260 253 170 146 210 89 72 55 41 36 31 30 20 3 326 313 271 250 255 266 262 260 281 278 274 260 244 246 246 243 237 233 233 241 244 233 238 233 231 235
279 276 275 268 259 253 252 255 255 250 159 176 192 173 105 86 61 43 37 34 28 29 12 346 323 311 314 247 252 269 267 263 265 270 271 269 253 252 250 245 242 240 238 238 233 232 237 235 233
280 263 270 265 245 229 188 269 286 199 155 189 227 142 140 109 70 43 38 37 33 42 42 21 3 6 359 285 257 282 272 271 274 269 272 275 269 260 258 254 247 245 243 238 230 226 230 237 225
244 248 255 259 167 195 194 262 291 153 200 210 241 145 135 110 75 52 42 38 34 35 26 15 354 5 16 4 290 272 281 277 268 259 263 269 270 273 264 257 251 248 242 243 235 230 236 235 232
281 313 285 270 162 194 226 267 280 281 279 264 113 119 118 107 83 72 52 43 27 21 30 19 7 8 13 9 12 346 321 293 291 286 280 272 271 269 274 268 258 249 249 249 249 240 236 242 237
323 309 294 295 291 266 272 254 257 276 261 249 143 129 121 114 107 74 45 30 26 18 19 15 5 9 4 351 359 342 338 331 315 299 289 288 282 273 270 270 265 258 251 253 253 241 240 236 232
286 283 281 282 287 318 316 304 294 270 272 109 132 135 136 135 128 93 58 27 14 9 6 9 3 2 5 341 352 337 330 329 324 321 307 305 299 290 277 271 273 262 255 253 254 242 233 232 230
260 265 277 289 310 305 287 275 273 75 97 109 125 132 137 134 120 97 49 21 6 2 359 358 352 356 352 335 333 328 322 322 319 308 300 305 300 299 291 281 265 265 257 245 253 237 239 224 220
281 290 307 306 297 286 301 291 283 179 137 124 126 129 128 127 116 93 48 10 2 358 349 344 340 344 332 327 319 316 318 318 310 307 300 305 303 303 299 295 283 273 260 246 253 240 243 227 222
293 305 300 290 285 284 278 271 273 203 153 149 134 120 107 103 98 64 16 357 346 346 344 344 331 330 318 319 319 317 315 310 307 304 309 303 293 298 299 297 292 293 300 280 253 252 247 230 230
300 299 289 267 255 258 266 257 280 163 166 152 137 132 122 106 76 27 348 340 340 337 339 333 329 325 328 327 321 321 317 313 310 312 310 302 303 294 286 294 297 296 284 277 282 290 268 238 240
255 281 297 295 286 278 306 351 333 58 127 145 140 137 121 85 20 345 338 347 340 334 332 329 323 323 322 322 321 314 314 309 300 299 303 302 297 289 284 283 291 295 295 299 287 285 282 285 260
310 299 287 286 297 297 318 289 77 68 67 96 104 111 120 33 351 340 344 343 332 326 325 325 324 317 316 316 314 312 308 303 300 302 299 288 284 290 288 283 280 273 285 292 294 292 271 266 277
292 302 308 297 284 274 249 176 106 116 112 124 133 145 99 342 347 349 334 324 322 323 322 321 317 316 325 320 311 311 310 305 298 302 298 288 281 283 282 280 286 277 281 279 270 274 278 273 264
257 273 286 307 288 281 293 308 79 179 165 163 178 198 3 331 339 325 324 319 321 320 324 323 327 328 326 311 310 307 301 298 296 298 296 298 295 284 288 301 287 285 282 271 273 272 277 274 263
299 280 258 279 242 254 292 277 86 90 184 180 181 144 344 346 327 330 322 321 322 325 328 330 333 333 316 317 313 317 313 301 298 310 324 303 277 291 291 282 285 285 282 285 280 269 269 279 274
279 269 279 205 232 236 268 263 110 138 125 140 256 315 346 329 319 325 324 325 328 331 326 331 328 317 318 322 329 331 339 359 7 350 321 317 322 319 316 303 299 290 297 301 292 287 278 272 274